GW2328 Weather Reports


Display with metric or nautical units.
time (UTC)temp
F
wind
direction
speed
MPH
gust
MPH
rain 1hr
in
rain 24hr
in
rain mn
in
humidity
%
barometer
mb
20260506041057 52 134 0.0 1.0 0.05 0.92 0.92 98 1012.0
20260506040555 52 134 0.0 1.0 0.05 0.92 0.92 98 1012.0
20260506040051 52 134 0.0 1.0 0.05 0.92 0.92 98 1012.0
20260506035548 52 132 0.0 1.0 0.00 0.91 0.91 98 1011.6
20260506035044 52 137 0.0 1.0 0.07 0.91 0.91 98 1011.2
20260506034542 52 126 0.0 0.0 0.07 0.91 0.91 98 1011.4
20260506034038 52 146 0.0 0.0 0.05 0.90 0.90 98 1011.5
20260506033536 52 142 0.0 0.0 0.05 0.90 0.90 98 1011.4
20260506033033 52 146 0.0 0.0 0.07 0.89 0.89 98 1011.5
20260506032530 52 147 0.0 0.0 0.07 0.89 0.89 98 1011.3
20260506032027 52 153 0.0 1.0 0.05 0.88 0.88 98 1011.5
20260506031524 52 153 1.0 1.0 0.05 0.88 0.88 98 1011.1
20260506031021 52 142 0.0 1.0 0.07 0.87 0.87 98 1010.6
20260506030519 52 137 0.0 0.0 0.07 0.87 0.87 98 1011.8
20260506030016 53 138 0.0 0.0 0.00 0.86 0.86 98 1011.3
20260506025513 53 145 0.0 2.0 0.05 0.86 0.86 98 1011.2
20260506025009 53 140 0.0 0.0 0.05 0.86 0.86 98 1011.2
20260506024507 53 161 1.0 1.0 0.07 0.85 0.85 98 1011.3
20260506024002 53 148 0.0 2.0 0.00 0.84 0.84 98 1011.4
20260506023459 53 146 0.0 1.0 0.05 0.84 0.84 98 1011.1
20260506022956 54 132 0.0 1.0 0.00 0.83 0.83 98 1011.5
20260506022454 54 179 1.0 2.0 0.07 0.83 0.83 98 1011.6
20260506021951 54 153 1.0 1.0 0.00 0.82 0.82 98 1011.6
20260506021448 55 196 3.0 5.0 0.07 0.82 0.82 98 1011.5
20260506020945 57 115 1.0 1.0 0.07 0.82 0.82 98 1011.3
20260506020443 59 154 0.0 1.0 0.05 0.81 0.81 98 1011.2
20260506015940 61 145 0.0 0.0 0.07 0.80 0.80 98 1011.2
20260506015438 61 144 0.0 0.0 0.07 0.80 0.80 98 1011.2
20260506014934 61 174 1.0 1.0 0.05 0.79 0.79 98 1011.2
20260506014431 61 147 0.0 1.0 0.07 0.78 0.78 98 1010.9
20260506013927 61 151 0.0 1.0 0.12 0.78 0.78 98 1011.2
20260506013426 61 162 1.0 2.0 0.05 0.77 0.77 98 1011.1
20260506012922 61 267 1.0 1.0 0.07 0.76 0.76 98 1010.9
20260506012418 61 221 0.0 2.0 0.00 0.75 0.75 98 1010.8
20260506011915 60 151 0.0 0.0 0.00 0.75 0.75 98 1010.9
20260506011413 60 153 0.0 1.0 0.00 0.75 0.75 98 1010.8
20260506010909 61 152 0.0 1.0 0.05 0.75 0.75 98 1010.7
20260506010408 61 156 0.0 0.0 0.00 0.74 0.74 98 1010.5
20260506005904 61 143 0.0 0.0 0.00 0.74 0.74 98 1010.5
20260506005402 61 150 0.0 0.0 0.00 0.74 0.74 98 1010.6
20260506004857 61 150 0.0 0.0 0.00 0.74 0.74 98 1010.7
20260506004355 61 149 0.0 0.0 0.00 0.74 0.74 98 1010.8
20260506003851 61 149 0.0 0.0 0.00 0.74 0.74 97 1010.8
20260506003347 61 149 0.0 0.0 0.07 0.74 0.74 97 1010.7
20260506002844 61 149 0.0 0.0 0.07 0.74 0.74 97 1010.8
20260506002340 61 149 0.0 0.0 0.00 0.73 0.73 97 1010.7
20260506001836 61 144 0.0 1.0 0.00 0.73 0.73 97 1010.8
20260506001333 61 153 0.0 1.0 0.05 0.73 0.73 97 1010.9
20260506000830 62 191 2.0 2.0 0.05 0.73 0.73 97 1010.8
20260506000330 62 151 0.0 0.0 0.00 0.72 0.72 97 1010.8
20260505235824 62 153 0.0 0.0 0.00 0.72 0.72 97 1010.5
20260505235322 62 199 0.0 0.0 0.07 0.72 0.72 97 1010.8
20260505234819 62 144 0.0 0.0 0.00 0.71 0.71 97 1010.6
20260505234317 62 144 0.0 0.0 0.00 0.71 0.71 97 1010.7
20260505233813 62 146 0.0 0.0 0.05 0.71 0.71 97 1010.7
20260505233311 62 142 0.0 0.0 0.05 0.71 0.71 97 1010.8
20260505232808 62 142 0.0 0.0 0.07 0.70 0.70 97 1010.5
20260505232306 62 142 0.0 0.0 0.07 0.70 0.70 97 1010.9
20260505231802 62 143 0.0 0.0 0.07 0.69 0.69 97 1011.2
20260505231301 62 142 0.0 0.0 0.05 0.68 0.68 97 1011.5
20260505230758 62 142 0.0 0.0 0.05 0.68 0.68 97 1011.2
20260505230255 62 142 0.0 0.0 0.07 0.67 0.67 97 1011.4
20260505225752 62 143 0.0 0.0 0.05 0.66 0.66 97 1011.4
20260505225249 62 142 0.0 0.0 0.12 0.66 0.66 97 1011.3
20260505224744 62 142 0.0 0.0 0.12 0.65 0.65 97 1011.4
20260505224242 62 141 0.0 0.0 0.12 0.64 0.64 97 1011.3
20260505223739 62 143 0.0 0.0 0.07 0.63 0.63 96 1011.4
20260505223235 62 141 0.0 0.0 0.05 0.62 0.62 96 1011.4
20260505222731 62 147 0.0 0.0 0.07 0.61 0.61 96 1011.5
20260505222227 62 142 0.0 0.0 0.19 0.61 0.61 96 1011.8
20260505221725 62 144 0.0 0.0 0.12 0.59 0.59 96 1011.7
20260505221221 62 146 0.0 0.0 0.12 0.58 0.58 96 1011.9
20260505220718 62 146 0.0 0.0 0.07 0.57 0.57 96 1011.9
20260505220216 62 144 0.0 0.0 0.07 0.56 0.56 96 1011.9
20260505215714 62 144 0.0 0.0 0.07 0.56 0.56 96 1011.9
20260505215212 62 144 0.0 0.0 0.05 0.55 0.55 96 1011.8
20260505214709 62 144 0.0 0.0 0.05 0.55 0.55 96 1011.7
20260505214206 62 144 0.0 0.0 0.07 0.54 0.54 96 1011.5
20260505213704 62 145 0.0 0.0 0.07 0.54 0.54 96 1011.3
20260505213201 62 146 0.0 0.0 0.00 0.53 0.53 96 1011.2
20260505212656 62 145 0.0 0.0 0.05 0.53 0.53 96 1011.4
20260505212154 62 146 0.0 0.0 0.05 0.53 0.53 96 1011.4
20260505211651 62 147 0.0 0.0 0.00 0.52 0.52 95 1011.6
20260505211148 62 147 0.0 0.0 0.00 0.52 0.52 95 1011.9
20260505210645 62 146 0.0 0.0 0.07 0.52 0.52 95 1011.7
20260505210141 62 146 0.0 0.0 0.00 0.51 0.51 95 1011.8
20260505205639 62 145 0.0 0.0 0.00 0.51 0.51 95 1011.8
20260505205137 62 145 0.0 1.0 0.05 0.51 0.51 95 1012.1
20260505204633 62 145 0.0 0.0 0.00 0.50 0.50 95 1012.3
20260505204132 62 145 0.0 0.0 0.07 0.50 0.50 95 1012.3
20260505203628 62 145 0.0 0.0 0.05 0.49 0.49 95 1012.4
20260505203125 62 150 0.0 0.0 0.12 0.49 0.49 95 1012.4
20260505202621 61 149 0.0 0.0 0.12 0.48 0.48 95 1012.5
20260505202117 61 151 0.0 1.0 0.19 0.47 0.47 94 1012.6
20260505201613 61 142 0.0 0.0 0.12 0.45 0.45 94 1012.6
20260505201111 61 151 0.0 0.0 0.12 0.44 0.44 94 1012.5
20260505200609 61 149 0.0 1.0 0.19 0.43 0.43 94 1012.7
20260505200106 61 145 0.0 0.0 0.19 0.41 0.41 94 1012.8
20260505195602 61 147 0.0 0.0 0.24 0.40 0.40 94 1012.9
20260505195100 61 151 0.0 1.0 0.24 0.38 0.38 93 1012.8
20260505194556 61 147 0.0 0.0 0.26 0.35 0.35 93 1012.8
20260505194052 61 155 0.0 2.0 0.19 0.33 0.33 93 1013.1
20260505193549 61 149 0.0 2.0 0.17 0.31 0.31 93 1012.9
20260505193046 61 158 1.0 1.0 0.12 0.29 0.29 93 1013.2
20260505192545 61 151 0.0 2.0 0.19 0.28 0.28 92 1013.1
20260505192042 61 141 0.0 0.0 0.24 0.27 0.27 92 1013.3
20260505191540 62 148 0.0 1.0 0.17 0.25 0.25 92 1013.4
20260505191038 62 148 0.0 0.0 0.12 0.23 0.23 92 1013.4
20260505190532 62 150 0.0 0.0 0.12 0.22 0.22 91 1013.4
20260505190029 62 150 0.0 1.0 0.12 0.21 0.21 91 1013.6
20260505185525 62 149 0.0 0.0 0.07 0.20 0.20 91 1013.6
20260505185022 62 151 1.0 1.0 0.07 0.19 0.19 90 1013.5
20260505184519 62 146 0.0 0.0 0.12 0.19 0.19 90 1013.3
20260505184016 61 139 0.0 1.0 0.12 0.18 0.18 90 1013.6
20260505183512 62 152 0.0 1.0 0.07 0.17 0.17 89 1013.4
20260505183009 62 143 0.0 0.0 0.12 0.16 0.16 89 1013.5
20260505182506 61 147 0.0 0.0 0.12 0.16 0.16 88 1013.7
20260505182002 61 148 1.0 1.0 0.05 0.14 0.14 87 1013.6
20260505181459 61 151 0.0 0.0 0.17 0.14 0.14 87 1013.7
20260505180956 61 150 1.0 1.0 0.24 0.13 0.13 86 1013.9
20260505180452 62 151 1.0 1.0 0.31 0.11 0.11 85 1013.7
20260505175949 62 146 0.0 0.0 0.31 0.09 0.09 85 1013.9
20260505175445 62 175 3.0 6.0 0.31 0.06 0.06 83 1014.0
20260505174941 63 359 4.0 5.0 0.17 0.03 0.03 82 1014.2
20260505174434 64 145 2.0 3.0 0.05 0.01 0.01 80 1014.1
20260505173930 65 196 2.0 3.0 0.00 0.00 0.00 79 1014.2
20260505173426 66 155 0.0 0.0 0.00 0.00 0.00 77 1013.4
20260505172923 66 146 0.0 0.0 0.00 0.00 0.00 76 1013.7
20260505172422 66 151 0.0 1.0 0.00 0.00 0.00 75 1013.5
20260505171920 67 151 0.0 1.0 0.00 0.00 0.00 74 1013.5
20260505171417 67 165 1.0 1.0 0.00 0.00 0.00 74 1013.8
20260505170914 67 148 1.0 2.0 0.00 0.00 0.00 73 1013.6
20260505170411 67 170 0.0 2.0 0.00 0.00 0.00 73 1013.6
20260505165906 67 172 1.0 1.0 0.00 0.00 0.00 74 1013.6
20260505165403 67 154 0.0 1.0 0.00 0.00 0.00 74 1013.6
20260505164858 66 150 0.0 2.0 0.00 0.00 0.00 74 1013.5
20260505164355 66 157 0.0 2.0 0.00 0.00 0.00 74 1013.8
20260505163853 66 151 0.0 1.0 0.00 0.00 0.00 74 1013.7
20260505163352 66 147 1.0 1.0 0.00 0.00 0.00 74 1013.7
20260505162850 66 161 0.0 2.0 0.00 0.00 0.00 74 1013.9
20260505162346 66 145 1.0 2.0 0.00 0.00 0.00 74 1013.8
20260505161843 66 155 1.0 2.0 0.00 0.00 0.00 74 1013.9
20260505161340 66 154 1.0 3.0 0.00 0.00 0.00 74 1013.8
20260505160837 66 154 1.0 3.0 0.00 0.00 0.00 75 1013.7
20260505160335 66 150 1.0 2.0 0.00 0.00 0.00 75 1013.7
20260505153313 64 145 0.0 0.0 0.00 0.00 0.00 77 1013.7
20260505152811 64 169 0.0 2.0 0.00 0.00 0.00 78 1013.7
20260505152307 64 155 0.0 2.0 0.00 0.00 0.00 79 1013.9
20260505151802 64 190 2.0 6.0 0.00 0.00 0.00 79 1013.8
20260505151259 64 172 3.0 5.0 0.00 0.00 0.00 80 1013.6
20260505150756 64 145 0.0 2.0 0.00 0.00 0.00 81 1013.8
20260505150253 64 151 0.0 2.0 0.00 0.00 0.00 82 1013.5
20260505140217 62 168 1.0 1.0 0.00 0.00 0.00 92 1013.4
20260505130142 59 153 0.0 1.0 0.00 0.00 0.00 93 1013.8
20260505124631 59 151 0.0 1.0 0.00 0.00 0.00 93 1013.5
20260505124128 59 150 0.0 0.0 0.00 0.00 0.00 93 1013.8
20260505123623 59 150 0.0 0.0 0.00 0.00 0.00 93 1013.6
20260505123120 58 149 0.0 0.0 0.00 0.00 0.00 92 1013.8
20260505122617 58 149 0.0 0.0 0.00 0.00 0.00 92 1013.9
20260505122115 58 150 0.0 0.0 0.00 0.00 0.00 92 1013.9
20260505121611 58 149 0.0 1.0 0.00 0.00 0.00 92 1014.2
20260505121108 58 130 0.0 0.0 0.00 0.00 0.00 92 1014.1
20260505120604 58 153 0.0 1.0 0.00 0.00 0.00 91 1013.8
20260505120100 58 148 0.0 1.0 0.00 0.00 0.00 91 1013.9
20260505115554 58 148 0.0 0.0 0.00 0.00 0.00 91 1013.7
20260505115052 58 148 0.0 0.0 0.00 0.00 0.00 91 1013.8
20260505114549 58 148 0.0 0.0 0.00 0.00 0.00 90 1013.7
20260505114045 58 148 0.0 0.0 0.00 0.00 0.00 90 1013.9
20260505113542 58 148 0.0 0.0 0.00 0.00 0.00 90 1014.1
20260505113038 58 148 0.0 0.0 0.00 0.00 0.00 89 1014.2
20260505112534 58 148 0.0 0.0 0.00 0.00 0.00 89 1013.9
20260505112032 58 148 0.0 0.0 0.00 0.00 0.00 89 1014.2
20260505111526 58 148 0.0 0.0 0.00 0.00 0.00 88 1014.3
20260505111023 58 148 0.0 0.0 0.00 0.00 0.00 88 1014.3
20260505110519 58 148 0.0 0.0 0.00 0.00 0.00 88 1014.2
20260505101951 59 148 0.0 0.0 0.00 0.00 0.00 82 1014.4
20260505101444 59 148 0.0 0.0 0.00 0.00 0.00 81 1014.1
20260505100940 59 148 0.0 0.0 0.00 0.00 0.00 80 1014.6
20260505100437 59 147 0.0 1.0 0.00 0.00 0.00 79 1014.5
20260505095933 59 137 0.0 1.0 0.00 0.00 0.00 78 1014.3
20260505095430 60 136 0.0 0.0 0.00 0.00 0.00 77 1014.4
20260505094926 60 156 0.0 0.0 0.00 0.00 0.00 75 1014.2
20260505094423 61 141 1.0 2.0 0.00 0.00 0.00 74 1014.4
20260505093919 62 121 0.0 2.0 0.00 0.00 0.00 71 1014.4
20260505093416 64 134 0.0 3.0 0.00 0.00 0.00 68 1014.4
20260505092914 65 143 0.0 1.0 0.00 0.00 0.00 66 1014.5
20260505092412 66 116 1.0 9.0 0.00 0.00 0.00 63 1014.5
20260505091909 67 139 1.0 5.0 0.00 0.00 0.00 61 1014.2
20260505091406 67 46 3.0 3.0 0.00 0.00 0.00 60 1013.8
20260505090904 66 142 1.0 2.0 0.00 0.00 0.00 60 1013.2
20260505090402 67 137 0.0 2.0 0.00 0.00 0.00 59 1012.6
20260505085859 67 151 0.0 5.0 0.00 0.00 0.00 59 1012.2
20260505085357 67 146 0.0 2.0 0.00 0.00 0.00 59 1012.5
20260505084855 67 168 1.0 5.0 0.00 0.00 0.00 59 1012.2
20260505084353 67 152 1.0 5.0 0.00 0.00 0.00 59 1012.2
20260505083850 67 198 0.0 2.0 0.00 0.00 0.00 59 1012.0
20260505083348 67 145 1.0 3.0 0.00 0.00 0.00 59 1011.8
20260505082844 67 172 2.0 3.0 0.00 0.00 0.00 59 1011.9
20260505082340 67 157 2.0 7.0 0.00 0.00 0.00 59 1011.7
20260505081837 67 186 3.0 5.0 0.00 0.00 0.00 59 1011.6
20260505081333 66 159 1.0 3.0 0.00 0.00 0.00 59 1011.8
20260505080830 66 177 3.0 5.0 0.00 0.00 0.00 60 1011.5
20260505080326 66 168 2.0 8.0 0.00 0.00 0.00 60 1011.3
20260505075821 66 132 3.0 5.0 0.00 0.00 0.00 60 1011.2
20260505075319 66 148 0.0 3.0 0.00 0.00 0.00 60 1011.6
20260505074816 66 174 3.0 5.0 0.00 0.00 0.00 60 1011.5
20260505074313 66 186 2.0 3.0 0.00 0.00 0.00 59 1011.4
20260505073811 66 195 2.0 2.0 0.00 0.00 0.00 59 1011.5
20260505073309 67 158 1.0 3.0 0.00 0.00 0.00 59 1011.5
20260505072805 67 160 0.0 2.0 0.00 0.00 0.00 59 1011.4
20260505072301 67 166 2.0 5.0 0.00 0.00 0.00 59 1011.5
20260505071757 67 138 1.0 3.0 0.00 0.00 0.00 59 1011.6
20260505071254 67 177 1.0 3.0 0.00 0.00 0.00 59 1011.6
20260505070752 67 138 1.0 6.0 0.00 0.00 0.00 59 1011.4
20260505070248 67 162 1.0 2.0 0.00 0.00 0.00 59 1011.5
20260505065743 67 164 1.0 3.0 0.00 0.00 0.00 59 1011.5
20260505065240 67 158 4.0 6.0 0.00 0.00 0.00 58 1011.4
20260505064737 67 143 1.0 3.0 0.00 0.00 0.00 58 1011.4
20260505064235 67 155 0.0 2.0 0.00 0.00 0.00 58 1011.4
20260505063732 67 158 2.0 5.0 0.00 0.00 0.00 59 1011.4
20260505063228 67 172 1.0 5.0 0.00 0.00 0.00 59 1011.4
20260505062725 67 161 1.0 2.0 0.00 0.00 0.00 59 1011.4
20260505062223 67 235 1.0 2.0 0.00 0.00 0.00 59 1011.4
20260505061719 67 150 2.0 3.0 0.00 0.00 0.00 59 1011.3
20260505061217 67 150 1.0 5.0 0.00 0.00 0.00 60 1011.2
20260505060715 67 327 3.0 7.0 0.00 0.00 0.00 60 1011.3
20260505060211 66 153 1.0 2.0 0.00 0.00 0.00 61 1011.4
20260505055707 66 154 0.0 1.0 0.00 0.00 0.00 62 1011.3
20260505055203 66 164 0.0 1.0 0.00 0.00 0.00 62 1011.4
20260505054701 65 163 1.0 3.0 0.00 0.00 0.00 62 1011.3
20260505054159 65 151 0.0 0.0 0.00 0.00 0.00 62 1011.4
20260505053656 65 155 0.0 0.0 0.00 0.00 0.00 62 1011.3
20260505053152 65 158 0.0 1.0 0.00 0.00 0.00 62 1011.2
20260505052649 66 168 0.0 1.0 0.00 0.00 0.00 62 1011.2
20260505052147 66 160 1.0 1.0 0.00 0.00 0.00 62 1011.1
20260505051643 66 165 0.0 2.0 0.00 0.00 0.00 62 1011.1
20260505051142 65 141 0.0 1.0 0.00 0.00 0.00 62 1010.9
20260505050639 65 163 1.0 3.0 0.00 0.00 0.00 63 1010.8
20260505050137 65 145 1.0 1.0 0.00 0.00 0.00 63 1010.9